Location: Campillo
(40.8621°N, 4.2488°W)
Time: 20:27:25
(UTC+00:00)

USA 245 - Pass Details

Date: 01 October 2021
Orbit: 268 x 1011 km, 97.9° (Epoch: 25 October)

Event Time Altitude Azimuth Distance (km) Brightness Sun altitude
Exits shadow 21:52:10 13° 340° (NNW) 2,120 6.8 -42.0°
Drops below altitude 10° 21:52:50 10° 341° (NNW) 2,378 7.0 -42.1°
Sets 21:55:29 0° 345° (NNW) 3,428 8.0 -42.5°
